owner,sensor,date,latitude,longitude,air_pressure(mBar),qcFlag 
COMPS,ioos:station:USF.COMPS:C13:1,2019-11-01T00:35:00,26.0630,-83.0730,1016.85,11111222 
COMPS,ioos:station:USF.COMPS:C13:1,2019-11-01T01:35:00,26.0630,-83.0730,1017.34,11111222 
COMPS,ioos:station:USF.COMPS:C13:1,2019-11-01T02:35:00,26.0630,-83.0730,1017.63,11111222 
COMPS,ioos:station:USF.COMPS:C13:1,2019-11-01T03:35:00,26.0630,-83.0730,1017.58,11111222 
COMPS,ioos:station:USF.COMPS:C13:1,2019-11-01T04:35:00,26.0630,-83.0730,1017.29,11111222 
COMPS,ioos:station:USF.COMPS:C13:1,2019-11-01T05:35:00,26.0630,-83.0730,1017.08,11111222 
COMPS,ioos:station:USF.COMPS:C13:1,2019-11-01T06:35:00,26.0630,-83.0730,1016.83,11111222 
COMPS,ioos:station:USF.COMPS:C13:1,2019-11-01T07:35:00,26.0630,-83.0730,1016.63,11111222 
COMPS,ioos:station:USF.COMPS:C13:1,2019-11-01T08:35:00,26.0630,-83.0730,1016.42,11111222 
COMPS,ioos:station:USF.COMPS:C13:1,2019-11-01T09:35:00,26.0630,-83.0730,1016.83,11111222 
COMPS,ioos:station:USF.COMPS:C13:1,2019-11-01T10:35:00,26.0630,-83.0730,1017.13,11111222 
COMPS,ioos:station:USF.COMPS:C13:1,2019-11-01T11:35:00,26.0630,-83.0730,1017.37,11111222 
COMPS,ioos:station:USF.COMPS:C13:1,2019-11-01T12:35:00,26.0630,-83.0730,1018.0,11111222 
COMPS,ioos:station:USF.COMPS:C13:1,2019-11-01T13:35:00,26.0630,-83.0730,1018.31,11111222 
COMPS,ioos:station:USF.COMPS:C13:1,2019-11-01T14:35:00,26.0630,-83.0730,1018.8,11111222 
COMPS,ioos:station:USF.COMPS:C13:1,2019-11-01T15:35:00,26.0630,-83.0730,1018.83,11111222 
COMPS,ioos:station:USF.COMPS:C13:1,2019-11-01T16:35:00,26.0630,-83.0730,1018.72,11111222 
COMPS,ioos:station:USF.COMPS:C13:1,2019-11-01T17:35:00,26.0630,-83.0730,1017.89,11111222 
COMPS,ioos:station:USF.COMPS:C13:1,2019-11-01T18:35:00,26.0630,-83.0730,1017.35,11111222 
COMPS,ioos:station:USF.COMPS:C13:1,2019-11-01T19:35:00,26.0630,-83.0730,1016.92,11111222 
COMPS,ioos:station:USF.COMPS:C13:1,2019-11-01T20:35:00,26.0630,-83.0730,1016.85,11111222 
COMPS,ioos:station:USF.COMPS:C13:1,2019-11-01T21:35:00,26.0630,-83.0730,1017.02,11111222 
COMPS,ioos:station:USF.COMPS:C13:1,2019-11-01T22:35:00,26.0630,-83.0730,1017.35,11111222 
COMPS,ioos:station:USF.COMPS:C13:1,2019-11-01T23:35:00,26.0630,-83.0730,1017.53,11111222 
COMPS,ioos:station:USF.COMPS:C13:1,2019-11-02T00:35:00,26.0630,-83.0730,1017.82,11111222 
COMPS,ioos:station:USF.COMPS:C13:1,2019-11-02T01:35:00,26.0630,-83.0730,1018.17,11111222 
COMPS,ioos:station:USF.COMPS:C13:1,2019-11-02T02:35:00,26.0630,-83.0730,1018.33,11111222 
COMPS,ioos:station:USF.COMPS:C13:1,2019-11-02T03:35:00,26.0630,-83.0730,1018.11,11111222 
COMPS,ioos:station:USF.COMPS:C13:1,2019-11-02T04:35:00,26.0630,-83.0730,1017.89,11111222 
COMPS,ioos:station:USF.COMPS:C13:1,2019-11-02T05:35:00,26.0630,-83.0730,1017.35,11111222 
COMPS,ioos:station:USF.COMPS:C13:1,2019-11-02T06:35:00,26.0630,-83.0730,1016.99,11111222 
COMPS,ioos:station:USF.COMPS:C13:1,2019-11-02T07:35:00,26.0630,-83.0730,1016.73,11111222 
COMPS,ioos:station:USF.COMPS:C13:1,2019-11-02T08:35:00,26.0630,-83.0730,1016.49,11111222 
COMPS,ioos:station:USF.COMPS:C13:1,2019-11-02T09:35:00,26.0630,-83.0730,1016.41,11111222 
COMPS,ioos:station:USF.COMPS:C13:1,2019-11-02T10:35:00,26.0630,-83.0730,1016.87,11111222 
COMPS,ioos:station:USF.COMPS:C13:1,2019-11-02T11:35:00,26.0630,-83.0730,1017.1,11111222 
COMPS,ioos:station:USF.COMPS:C13:1,2019-11-02T12:35:00,26.0630,-83.0730,1017.57,11111222 
COMPS,ioos:station:USF.COMPS:C13:1,2019-11-02T13:35:00,26.0630,-83.0730,1017.66,11111222 
COMPS,ioos:station:USF.COMPS:C13:1,2019-11-02T14:35:00,26.0630,-83.0730,1017.88,11111222 
COMPS,ioos:station:USF.COMPS:C13:1,2019-11-02T15:35:00,26.0630,-83.0730,1017.9,11111222 
COMPS,ioos:station:USF.COMPS:C13:1,2019-11-02T16:35:00,26.0630,-83.0730,1017.31,11111222 
COMPS,ioos:station:USF.COMPS:C13:1,2019-11-02T17:35:00,26.0630,-83.0730,1016.58,11111222 
COMPS,ioos:station:USF.COMPS:C13:1,2019-11-02T18:35:00,26.0630,-83.0730,1015.84,11111222 
COMPS,ioos:station:USF.COMPS:C13:1,2019-11-02T19:35:00,26.0630,-83.0730,1015.51,11111222 
COMPS,ioos:station:USF.COMPS:C13:1,2019-11-02T20:35:00,26.0630,-83.0730,1015.55,11111222 
COMPS,ioos:station:USF.COMPS:C13:1,2019-11-02T21:35:00,26.0630,-83.0730,1015.47,11111222 
COMPS,ioos:station:USF.COMPS:C13:1,2019-11-02T22:35:00,26.0630,-83.0730,1016.06,11111222 
COMPS,ioos:station:USF.COMPS:C13:1,2019-11-02T23:35:00,26.0630,-83.0730,1016.01,11111222 
COMPS,ioos:station:USF.COMPS:C13:1,2019-11-03T00:35:00,26.0630,-83.0730,1016.49,11111222 
COMPS,ioos:station:USF.COMPS:C13:1,2019-11-03T01:35:00,26.0630,-83.0730,1016.78,11111222 
COMPS,ioos:station:USF.COMPS:C13:1,2019-11-03T02:35:00,26.0630,-83.0730,1016.77,11111222 
COMPS,ioos:station:USF.COMPS:C13:1,2019-11-03T03:35:00,26.0630,-83.0730,1016.86,11111222 
COMPS,ioos:station:USF.COMPS:C13:1,2019-11-03T04:35:00,26.0630,-83.0730,1016.64,11111222 
COMPS,ioos:station:USF.COMPS:C13:1,2019-11-03T05:35:00,26.0630,-83.0730,1016.24,11111222 
COMPS,ioos:station:USF.COMPS:C13:1,2019-11-03T06:35:00,26.0630,-83.0730,1015.96,11111222 
COMPS,ioos:station:USF.COMPS:C13:1,2019-11-03T07:35:00,26.0630,-83.0730,1015.37,11111222 
COMPS,ioos:station:USF.COMPS:C13:1,2019-11-03T08:35:00,26.0630,-83.0730,1015.28,11111222 
COMPS,ioos:station:USF.COMPS:C13:1,2019-11-03T09:35:00,26.0630,-83.0730,1015.25,11111222 
COMPS,ioos:station:USF.COMPS:C13:1,2019-11-03T10:35:00,26.0630,-83.0730,1015.51,11111222 
COMPS,ioos:station:USF.COMPS:C13:1,2019-11-03T11:35:00,26.0630,-83.0730,1016.01,11111222 
COMPS,ioos:station:USF.COMPS:C13:1,2019-11-03T12:35:00,26.0630,-83.0730,1016.33,11111222 
COMPS,ioos:station:USF.COMPS:C13:1,2019-11-03T13:35:00,26.0630,-83.0730,1017.22,11111222 
COMPS,ioos:station:USF.COMPS:C13:1,2019-11-03T14:35:00,26.0630,-83.0730,1017.63,11111222 
COMPS,ioos:station:USF.COMPS:C13:1,2019-11-03T15:35:00,26.0630,-83.0730,1017.89,11111222 
COMPS,ioos:station:USF.COMPS:C13:1,2019-11-03T16:35:00,26.0630,-83.0730,1017.69,11111222 
COMPS,ioos:station:USF.COMPS:C13:1,2019-11-03T17:35:00,26.0630,-83.0730,1016.91,11111222 
COMPS,ioos:station:USF.COMPS:C13:1,2019-11-03T18:35:00,26.0630,-83.0730,1016.09,11111222 
COMPS,ioos:station:USF.COMPS:C13:1,2019-11-03T19:35:00,26.0630,-83.0730,1015.73,11111222 
COMPS,ioos:station:USF.COMPS:C13:1,2019-11-03T20:35:00,26.0630,-83.0730,1015.51,11111222 
COMPS,ioos:station:USF.COMPS:C13:1,2019-11-03T21:35:00,26.0630,-83.0730,1015.56,11111222 
COMPS,ioos:station:USF.COMPS:C13:1,2019-11-03T22:35:00,26.0630,-83.0730,1015.7,11111222 
COMPS,ioos:station:USF.COMPS:C13:1,2019-11-03T23:35:00,26.0630,-83.0730,1016.19,11111222 
COMPS,ioos:station:USF.COMPS:C13:1,2019-11-04T00:35:00,26.0630,-83.0730,1016.24,11111222 
COMPS,ioos:station:USF.COMPS:C13:1,2019-11-04T01:35:00,26.0630,-83.0730,1016.69,11111222 
COMPS,ioos:station:USF.COMPS:C13:1,2019-11-04T02:35:00,26.0630,-83.0730,1016.91,11111222 
COMPS,ioos:station:USF.COMPS:C13:1,2019-11-04T03:35:00,26.0630,-83.0730,1017.01,11111222 
COMPS,ioos:station:USF.COMPS:C13:1,2019-11-04T04:35:00,26.0630,-83.0730,1016.7,11111222 
COMPS,ioos:station:USF.COMPS:C13:1,2019-11-04T05:35:00,26.0630,-83.0730,1016.17,11111222 
COMPS,ioos:station:USF.COMPS:C13:1,2019-11-04T15:35:00,26.0630,-83.0730,1018.1,11111222 
COMPS,ioos:station:USF.COMPS:C13:1,2019-11-04T16:35:00,26.0630,-83.0730,1017.81,11111222 
COMPS,ioos:station:USF.COMPS:C13:1,2019-11-04T17:35:00,26.0630,-83.0730,1017.15,11111222 
COMPS,ioos:station:USF.COMPS:C13:1,2019-11-04T18:35:00,26.0630,-83.0730,1016.54,11111222 
COMPS,ioos:station:USF.COMPS:C13:1,2019-11-04T19:35:00,26.0630,-83.0730,1016.18,11111222 
COMPS,ioos:station:USF.COMPS:C13:1,2019-11-04T20:35:00,26.0630,-83.0730,1015.79,11111222 
COMPS,ioos:station:USF.COMPS:C13:1,2019-11-04T21:35:00,26.0630,-83.0730,1016.2,11111222 
COMPS,ioos:station:USF.COMPS:C13:1,2019-11-04T22:35:00,26.0630,-83.0730,1016.57,11111222 
COMPS,ioos:station:USF.COMPS:C13:1,2019-11-04T23:35:00,26.0630,-83.0730,1016.38,11111222 
COMPS,ioos:station:USF.COMPS:C13:1,2019-11-05T00:35:00,26.0630,-83.0730,1016.99,11111222 
COMPS,ioos:station:USF.COMPS:C13:1,2019-11-05T01:35:00,26.0630,-83.0730,1017.34,11111222 
COMPS,ioos:station:USF.COMPS:C13:1,2019-11-05T02:35:00,26.0630,-83.0730,1017.83,11111222 
COMPS,ioos:station:USF.COMPS:C13:1,2019-11-05T03:35:00,26.0630,-83.0730,1017.96,11111222 
COMPS,ioos:station:USF.COMPS:C13:1,2019-11-05T04:35:00,26.0630,-83.0730,1018.0,11111222 
COMPS,ioos:station:USF.COMPS:C13:1,2019-11-05T05:35:00,26.0630,-83.0730,1017.44,11111222 
COMPS,ioos:station:USF.COMPS:C13:1,2019-11-05T06:35:00,26.0630,-83.0730,1016.88,11111222 
COMPS,ioos:station:USF.COMPS:C13:1,2019-11-05T07:35:00,26.0630,-83.0730,1016.73,11111222 
COMPS,ioos:station:USF.COMPS:C13:1,2019-11-05T08:35:00,26.0630,-83.0730,1016.98,11111222 
COMPS,ioos:station:USF.COMPS:C13:1,2019-11-05T09:35:00,26.0630,-83.0730,1017.13,11111222 
COMPS,ioos:station:USF.COMPS:C13:1,2019-11-05T10:35:00,26.0630,-83.0730,1017.41,11111222 
COMPS,ioos:station:USF.COMPS:C13:1,2019-11-05T11:35:00,26.0630,-83.0730,1017.93,11111222 
COMPS,ioos:station:USF.COMPS:C13:1,2019-11-05T12:35:00,26.0630,-83.0730,1018.44,11111222 
COMPS,ioos:station:USF.COMPS:C13:1,2019-11-05T13:35:00,26.0630,-83.0730,1019.0,11111222 
COMPS,ioos:station:USF.COMPS:C13:1,2019-11-05T14:35:00,26.0630,-83.0730,1019.45,11111222 
COMPS,ioos:station:USF.COMPS:C13:1,2019-11-05T15:35:00,26.0630,-83.0730,1019.7,11111222 
COMPS,ioos:station:USF.COMPS:C13:1,2019-11-05T16:35:00,26.0630,-83.0730,1019.52,11111222 
COMPS,ioos:station:USF.COMPS:C13:1,2019-11-05T17:35:00,26.0630,-83.0730,1018.94,11111222 
COMPS,ioos:station:USF.COMPS:C13:1,2019-11-05T18:35:00,26.0630,-83.0730,1018.14,11111222 
COMPS,ioos:station:USF.COMPS:C13:1,2019-11-05T19:35:00,26.0630,-83.0730,1017.9,11111222 
COMPS,ioos:station:USF.COMPS:C13:1,2019-11-05T20:35:00,26.0630,-83.0730,1017.85,11111222 
COMPS,ioos:station:USF.COMPS:C13:1,2019-11-05T21:35:00,26.0630,-83.0730,1017.89,11111222 
COMPS,ioos:station:USF.COMPS:C13:1,2019-11-05T22:35:00,26.0630,-83.0730,1018.33,11111222 
COMPS,ioos:station:USF.COMPS:C13:1,2019-11-05T23:35:00,26.0630,-83.0730,1018.49,11111222 
COMPS,ioos:station:USF.COMPS:C13:1,2019-11-06T00:35:00,26.0630,-83.0730,1018.9,11111222 
COMPS,ioos:station:USF.COMPS:C13:1,2019-11-06T01:35:00,26.0630,-83.0730,1019.3,11111222 
COMPS,ioos:station:USF.COMPS:C13:1,2019-11-06T02:35:00,26.0630,-83.0730,1019.79,11111222 
COMPS,ioos:station:USF.COMPS:C13:1,2019-11-06T03:35:00,26.0630,-83.0730,1019.94,11111222 
COMPS,ioos:station:USF.COMPS:C13:1,2019-11-06T04:35:00,26.0630,-83.0730,1019.78,11111222 
COMPS,ioos:station:USF.COMPS:C13:1,2019-11-06T05:35:00,26.0630,-83.0730,1019.13,11111222 
COMPS,ioos:station:USF.COMPS:C13:1,2019-11-06T06:35:00,26.0630,-83.0730,1018.88,11111222 
COMPS,ioos:station:USF.COMPS:C13:1,2019-11-06T07:35:00,26.0630,-83.0730,1018.41,11111222 
COMPS,ioos:station:USF.COMPS:C13:1,2019-11-06T08:35:00,26.0630,-83.0730,1018.51,11111222 
COMPS,ioos:station:USF.COMPS:C13:1,2019-11-06T09:35:00,26.0630,-83.0730,1018.56,11111222 
COMPS,ioos:station:USF.COMPS:C13:1,2019-11-06T10:35:00,26.0630,-83.0730,1018.97,11111222 
COMPS,ioos:station:USF.COMPS:C13:1,2019-11-06T11:35:00,26.0630,-83.0730,1019.5,11111222 
COMPS,ioos:station:USF.COMPS:C13:1,2019-11-06T12:35:00,26.0630,-83.0730,1019.93,11111222 
COMPS,ioos:station:USF.COMPS:C13:1,2019-11-06T13:35:00,26.0630,-83.0730,1020.66,11111222 
COMPS,ioos:station:USF.COMPS:C13:1,2019-11-06T14:35:00,26.0630,-83.0730,1021.34,11111222 
COMPS,ioos:station:USF.COMPS:C13:1,2019-11-06T15:35:00,26.0630,-83.0730,1021.56,11111222 
COMPS,ioos:station:USF.COMPS:C13:1,2019-11-06T16:35:00,26.0630,-83.0730,1021.0,11111222 
COMPS,ioos:station:USF.COMPS:C13:1,2019-11-06T17:35:00,26.0630,-83.0730,1020.13,11111222 
COMPS,ioos:station:USF.COMPS:C13:1,2019-11-06T18:35:00,26.0630,-83.0730,1019.18,11111222 
COMPS,ioos:station:USF.COMPS:C13:1,2019-11-06T19:35:00,26.0630,-83.0730,1018.79,11111222 
COMPS,ioos:station:USF.COMPS:C13:1,2019-11-06T20:35:00,26.0630,-83.0730,1018.57,11111222 
COMPS,ioos:station:USF.COMPS:C13:1,2019-11-06T21:35:00,26.0630,-83.0730,1018.56,11111222 
COMPS,ioos:station:USF.COMPS:C13:1,2019-11-06T22:35:00,26.0630,-83.0730,1018.91,11111222 
COMPS,ioos:station:USF.COMPS:C13:1,2019-11-06T23:35:00,26.0630,-83.0730,1018.96,11111222 
COMPS,ioos:station:USF.COMPS:C13:1,2019-11-07T00:35:00,26.0630,-83.0730,1019.2,11111222 
COMPS,ioos:station:USF.COMPS:C13:1,2019-11-07T01:35:00,26.0630,-83.0730,1019.55,11111222 
COMPS,ioos:station:USF.COMPS:C13:1,2019-11-07T02:35:00,26.0630,-83.0730,1019.59,11111222 
COMPS,ioos:station:USF.COMPS:C13:1,2019-11-07T03:35:00,26.0630,-83.0730,1019.8,11111222 
COMPS,ioos:station:USF.COMPS:C13:1,2019-11-07T04:35:00,26.0630,-83.0730,1019.59,11111222 
COMPS,ioos:station:USF.COMPS:C13:1,2019-11-07T05:35:00,26.0630,-83.0730,1019.38,11111222 
COMPS,ioos:station:USF.COMPS:C13:1,2019-11-07T06:35:00,26.0630,-83.0730,1019.18,11111222 
COMPS,ioos:station:USF.COMPS:C13:1,2019-11-07T07:35:00,26.0630,-83.0730,1018.43,11111222 
COMPS,ioos:station:USF.COMPS:C13:1,2019-11-07T08:35:00,26.0630,-83.0730,1018.2,11111222 
COMPS,ioos:station:USF.COMPS:C13:1,2019-11-07T09:35:00,26.0630,-83.0730,1017.85,11111222 
COMPS,ioos:station:USF.COMPS:C13:1,2019-11-07T10:35:00,26.0630,-83.0730,1017.71,11111222 
COMPS,ioos:station:USF.COMPS:C13:1,2019-11-07T11:35:00,26.0630,-83.0730,1018.07,11111222 
COMPS,ioos:station:USF.COMPS:C13:1,2019-11-07T12:35:00,26.0630,-83.0730,1018.61,11111222 
COMPS,ioos:station:USF.COMPS:C13:1,2019-11-07T13:35:00,26.0630,-83.0730,1019.23,11111222 
COMPS,ioos:station:USF.COMPS:C13:1,2019-11-07T14:35:00,26.0630,-83.0730,1019.75,11111222 
COMPS,ioos:station:USF.COMPS:C13:1,2019-11-07T15:35:00,26.0630,-83.0730,1019.86,11111222 
COMPS,ioos:station:USF.COMPS:C13:1,2019-11-07T16:35:00,26.0630,-83.0730,1019.49,11111222 
COMPS,ioos:station:USF.COMPS:C13:1,2019-11-07T17:35:00,26.0630,-83.0730,1018.73,11111222 
COMPS,ioos:station:USF.COMPS:C13:1,2019-11-07T18:35:00,26.0630,-83.0730,1017.63,11111222 
COMPS,ioos:station:USF.COMPS:C13:1,2019-11-07T19:35:00,26.0630,-83.0730,1016.89,11111222 
COMPS,ioos:station:USF.COMPS:C13:1,2019-11-07T20:35:00,26.0630,-83.0730,1016.64,11111222 
COMPS,ioos:station:USF.COMPS:C13:1,2019-11-07T21:35:00,26.0630,-83.0730,1016.67,11111222 
COMPS,ioos:station:USF.COMPS:C13:1,2019-11-07T22:35:00,26.0630,-83.0730,1016.54,11111222 
COMPS,ioos:station:USF.COMPS:C13:1,2019-11-07T23:35:00,26.0630,-83.0730,1016.73,11111222 
COMPS,ioos:station:USF.COMPS:C13:1,2019-11-08T00:35:00,26.0630,-83.0730,1016.85,11111222 
COMPS,ioos:station:USF.COMPS:C13:1,2019-11-08T01:35:00,26.0630,-83.0730,1017.1,11111222 
COMPS,ioos:station:USF.COMPS:C13:1,2019-11-08T02:35:00,26.0630,-83.0730,1017.3,11111222 
COMPS,ioos:station:USF.COMPS:C13:1,2019-11-08T03:35:00,26.0630,-83.0730,1016.95,11111222 
COMPS,ioos:station:USF.COMPS:C13:1,2019-11-08T04:35:00,26.0630,-83.0730,1016.65,11111222 
COMPS,ioos:station:USF.COMPS:C13:1,2019-11-08T05:35:00,26.0630,-83.0730,1016.19,11111222 
COMPS,ioos:station:USF.COMPS:C13:1,2019-11-08T06:35:00,26.0630,-83.0730,1015.62,11111222 
COMPS,ioos:station:USF.COMPS:C13:1,2019-11-08T07:35:00,26.0630,-83.0730,1015.13,11111222 
COMPS,ioos:station:USF.COMPS:C13:1,2019-11-08T08:35:00,26.0630,-83.0730,1014.9,11111222 
COMPS,ioos:station:USF.COMPS:C13:1,2019-11-08T09:35:00,26.0630,-83.0730,1014.92,11111222 
COMPS,ioos:station:USF.COMPS:C13:1,2019-11-08T10:35:00,26.0630,-83.0730,1014.85,11111222 
COMPS,ioos:station:USF.COMPS:C13:1,2019-11-08T11:35:00,26.0630,-83.0730,1015.01,11111222 
COMPS,ioos:station:USF.COMPS:C13:1,2019-11-08T12:35:00,26.0630,-83.0730,1015.51,11111222 
COMPS,ioos:station:USF.COMPS:C13:1,2019-11-08T13:35:00,26.0630,-83.0730,1016.02,11111222 
COMPS,ioos:station:USF.COMPS:C13:1,2019-11-08T14:35:00,26.0630,-83.0730,1016.4,11111222 
COMPS,ioos:station:USF.COMPS:C13:1,2019-11-08T15:35:00,26.0630,-83.0730,1016.26,11111222 
COMPS,ioos:station:USF.COMPS:C13:1,2019-11-08T16:35:00,26.0630,-83.0730,1015.74,11111222 
COMPS,ioos:station:USF.COMPS:C13:1,2019-11-08T17:35:00,26.0630,-83.0730,1015.02,11111222 
COMPS,ioos:station:USF.COMPS:C13:1,2019-11-08T18:35:00,26.0630,-83.0730,1013.89,11111222 
COMPS,ioos:station:USF.COMPS:C13:1,2019-11-08T19:35:00,26.0630,-83.0730,1013.18,11111222 
COMPS,ioos:station:USF.COMPS:C13:1,2019-11-08T20:35:00,26.0630,-83.0730,1012.94,11111222 
COMPS,ioos:station:USF.COMPS:C13:1,2019-11-08T21:35:00,26.0630,-83.0730,1013.18,11111222 
COMPS,ioos:station:USF.COMPS:C13:1,2019-11-08T22:35:00,26.0630,-83.0730,1013.46,11111222 
COMPS,ioos:station:USF.COMPS:C13:1,2019-11-08T23:35:00,26.0630,-83.0730,1013.9,11111222 
COMPS,ioos:station:USF.COMPS:C13:1,2019-11-09T00:35:00,26.0630,-83.0730,1014.31,11111222 
COMPS,ioos:station:USF.COMPS:C13:1,2019-11-09T01:35:00,26.0630,-83.0730,1014.63,11111222 
COMPS,ioos:station:USF.COMPS:C13:1,2019-11-09T02:35:00,26.0630,-83.0730,1014.77,11111222 
COMPS,ioos:station:USF.COMPS:C13:1,2019-11-09T03:35:00,26.0630,-83.0730,1014.65,11111222 
COMPS,ioos:station:USF.COMPS:C13:1,2019-11-09T04:35:00,26.0630,-83.0730,1014.14,11111222 
COMPS,ioos:station:USF.COMPS:C13:1,2019-11-09T05:35:00,26.0630,-83.0730,1014.06,11111222 
COMPS,ioos:station:USF.COMPS:C13:1,2019-11-09T06:35:00,26.0630,-83.0730,1013.48,11111222 
COMPS,ioos:station:USF.COMPS:C13:1,2019-11-09T07:35:00,26.0630,-83.0730,1012.63,11111222 
COMPS,ioos:station:USF.COMPS:C13:1,2019-11-09T08:35:00,26.0630,-83.0730,1013.58,11111222 
COMPS,ioos:station:USF.COMPS:C13:1,2019-11-09T09:35:00,26.0630,-83.0730,1013.76,11111222 
COMPS,ioos:station:USF.COMPS:C13:1,2019-11-09T10:35:00,26.0630,-83.0730,1013.92,11111222 
COMPS,ioos:station:USF.COMPS:C13:1,2019-11-09T11:35:00,26.0630,-83.0730,1014.46,11111222 
COMPS,ioos:station:USF.COMPS:C13:1,2019-11-09T12:35:00,26.0630,-83.0730,1015.03,11111222 
COMPS,ioos:station:USF.COMPS:C13:1,2019-11-09T13:35:00,26.0630,-83.0730,1015.86,11111222 
COMPS,ioos:station:USF.COMPS:C13:1,2019-11-09T14:35:00,26.0630,-83.0730,1016.65,11111222 
COMPS,ioos:station:USF.COMPS:C13:1,2019-11-09T15:35:00,26.0630,-83.0730,1016.94,11111222 
COMPS,ioos:station:USF.COMPS:C13:1,2019-11-09T16:35:00,26.0630,-83.0730,1016.78,11111222 
COMPS,ioos:station:USF.COMPS:C13:1,2019-11-09T17:35:00,26.0630,-83.0730,1016.14,11111222 
COMPS,ioos:station:USF.COMPS:C13:1,2019-11-09T18:35:00,26.0630,-83.0730,1015.72,11111222 
COMPS,ioos:station:USF.COMPS:C13:1,2019-11-09T19:35:00,26.0630,-83.0730,1015.5,11111222 
COMPS,ioos:station:USF.COMPS:C13:1,2019-11-09T20:35:00,26.0630,-83.0730,1015.63,11111222 
COMPS,ioos:station:USF.COMPS:C13:1,2019-11-09T21:35:00,26.0630,-83.0730,1015.81,11111222 
COMPS,ioos:station:USF.COMPS:C13:1,2019-11-09T22:35:00,26.0630,-83.0730,1016.24,11111222 
COMPS,ioos:station:USF.COMPS:C13:1,2019-11-09T23:35:00,26.0630,-83.0730,1016.43,11111222 
COMPS,ioos:station:USF.COMPS:C13:1,2019-11-10T00:35:00,26.0630,-83.0730,1016.88,11111222 
COMPS,ioos:station:USF.COMPS:C13:1,2019-11-10T01:35:00,26.0630,-83.0730,1017.16,11111222 
COMPS,ioos:station:USF.COMPS:C13:1,2019-11-10T02:35:00,26.0630,-83.0730,1017.54,11111222 
COMPS,ioos:station:USF.COMPS:C13:1,2019-11-10T03:35:00,26.0630,-83.0730,1017.96,11111222 
COMPS,ioos:station:USF.COMPS:C13:1,2019-11-10T04:35:00,26.0630,-83.0730,1018.17,11111222 
COMPS,ioos:station:USF.COMPS:C13:1,2019-11-10T05:35:00,26.0630,-83.0730,1018.43,11111222 
COMPS,ioos:station:USF.COMPS:C13:1,2019-11-10T06:35:00,26.0630,-83.0730,1018.26,11111222 
COMPS,ioos:station:USF.COMPS:C13:1,2019-11-10T07:35:00,26.0630,-83.0730,1017.88,11111222 
COMPS,ioos:station:USF.COMPS:C13:1,2019-11-10T08:35:00,26.0630,-83.0730,1017.8,11111222 
COMPS,ioos:station:USF.COMPS:C13:1,2019-11-10T09:35:00,26.0630,-83.0730,1017.89,11111222 
COMPS,ioos:station:USF.COMPS:C13:1,2019-11-10T10:35:00,26.0630,-83.0730,1018.13,11111222 
COMPS,ioos:station:USF.COMPS:C13:1,2019-11-10T11:35:00,26.0630,-83.0730,1018.61,11111222 
COMPS,ioos:station:USF.COMPS:C13:1,2019-11-10T12:35:00,26.0630,-83.0730,1019.11,11111222 
COMPS,ioos:station:USF.COMPS:C13:1,2019-11-10T13:35:00,26.0630,-83.0730,1019.86,11111222 
COMPS,ioos:station:USF.COMPS:C13:1,2019-11-10T14:35:00,26.0630,-83.0730,1020.14,11111222 
COMPS,ioos:station:USF.COMPS:C13:1,2019-11-10T15:35:00,26.0630,-83.0730,1020.24,11111222 
COMPS,ioos:station:USF.COMPS:C13:1,2019-11-10T16:35:00,26.0630,-83.0730,1019.8,11111222 
COMPS,ioos:station:USF.COMPS:C13:1,2019-11-10T17:35:00,26.0630,-83.0730,1019.06,11111222 
COMPS,ioos:station:USF.COMPS:C13:1,2019-11-10T18:35:00,26.0630,-83.0730,1018.2,11111222 
COMPS,ioos:station:USF.COMPS:C13:1,2019-11-10T19:35:00,26.0630,-83.0730,1017.74,11111222 
COMPS,ioos:station:USF.COMPS:C13:1,2019-11-10T20:35:00,26.0630,-83.0730,1017.46,11111222 
COMPS,ioos:station:USF.COMPS:C13:1,2019-11-10T21:35:00,26.0630,-83.0730,1017.32,11111222 
COMPS,ioos:station:USF.COMPS:C13:1,2019-11-10T22:35:00,26.0630,-83.0730,1017.21,11111222 
COMPS,ioos:station:USF.COMPS:C13:1,2019-11-10T23:35:00,26.0630,-83.0730,1017.41,11111222 
COMPS,ioos:station:USF.COMPS:C13:1,2019-11-11T00:35:00,26.0630,-83.0730,1017.87,11111222 
COMPS,ioos:station:USF.COMPS:C13:1,2019-11-11T01:35:00,26.0630,-83.0730,1018.31,11111222 
COMPS,ioos:station:USF.COMPS:C13:1,2019-11-11T02:35:00,26.0630,-83.0730,1018.61,11111222 
COMPS,ioos:station:USF.COMPS:C13:1,2019-11-11T03:35:00,26.0630,-83.0730,1018.69,11111222 
COMPS,ioos:station:USF.COMPS:C13:1,2019-11-11T04:35:00,26.0630,-83.0730,1018.77,11111222 
COMPS,ioos:station:USF.COMPS:C13:1,2019-11-11T05:35:00,26.0630,-83.0730,1018.54,11111222 
COMPS,ioos:station:USF.COMPS:C13:1,2019-11-11T06:35:00,26.0630,-83.0730,1018.22,11111222 
COMPS,ioos:station:USF.COMPS:C13:1,2019-11-11T07:35:00,26.0630,-83.0730,1017.81,11111222 
COMPS,ioos:station:USF.COMPS:C13:1,2019-11-11T08:35:00,26.0630,-83.0730,1017.61,11111222 
COMPS,ioos:station:USF.COMPS:C13:1,2019-11-11T09:35:00,26.0630,-83.0730,1017.89,11111222 
COMPS,ioos:station:USF.COMPS:C13:1,2019-11-11T10:35:00,26.0630,-83.0730,1018.01,11111222 
COMPS,ioos:station:USF.COMPS:C13:1,2019-11-11T11:35:00,26.0630,-83.0730,1018.33,11111222 
COMPS,ioos:station:USF.COMPS:C13:1,2019-11-11T12:35:00,26.0630,-83.0730,1018.58,11111222 
COMPS,ioos:station:USF.COMPS:C13:1,2019-11-11T13:35:00,26.0630,-83.0730,1018.75,11111222 
COMPS,ioos:station:USF.COMPS:C13:1,2019-11-11T14:35:00,26.0630,-83.0730,1019.1,11111222 
COMPS,ioos:station:USF.COMPS:C13:1,2019-11-11T15:35:00,26.0630,-83.0730,1019.01,11111222 
COMPS,ioos:station:USF.COMPS:C13:1,2019-11-11T16:35:00,26.0630,-83.0730,1018.22,11111222 
COMPS,ioos:station:USF.COMPS:C13:1,2019-11-11T17:35:00,26.0630,-83.0730,1017.58,11111222 
COMPS,ioos:station:USF.COMPS:C13:1,2019-11-11T18:35:00,26.0630,-83.0730,1016.81,11111222 
COMPS,ioos:station:USF.COMPS:C13:1,2019-11-11T19:35:00,26.0630,-83.0730,1016.37,11111222 
COMPS,ioos:station:USF.COMPS:C13:1,2019-11-11T20:35:00,26.0630,-83.0730,1016.07,11111222 
COMPS,ioos:station:USF.COMPS:C13:1,2019-11-11T21:35:00,26.0630,-83.0730,1016.07,11111222 
COMPS,ioos:station:USF.COMPS:C13:1,2019-11-11T22:35:00,26.0630,-83.0730,1016.02,11111222 
COMPS,ioos:station:USF.COMPS:C13:1,2019-11-11T23:35:00,26.0630,-83.0730,1016.07,11111222 
COMPS,ioos:station:USF.COMPS:C13:1,2019-11-12T00:35:00,26.0630,-83.0730,1016.37,11111222 
COMPS,ioos:station:USF.COMPS:C13:1,2019-11-12T01:35:00,26.0630,-83.0730,1016.51,11111222 
COMPS,ioos:station:USF.COMPS:C13:1,2019-11-12T02:35:00,26.0630,-83.0730,1016.78,11111222 
COMPS,ioos:station:USF.COMPS:C13:1,2019-11-12T03:35:00,26.0630,-83.0730,1016.74,11111222 
COMPS,ioos:station:USF.COMPS:C13:1,2019-11-12T04:35:00,26.0630,-83.0730,1016.23,11111222 
COMPS,ioos:station:USF.COMPS:C13:1,2019-11-12T05:35:00,26.0630,-83.0730,1015.64,11111222 
COMPS,ioos:station:USF.COMPS:C13:1,2019-11-12T06:35:00,26.0630,-83.0730,1015.12,11111222 
COMPS,ioos:station:USF.COMPS:C13:1,2019-11-12T07:35:00,26.0630,-83.0730,1014.6,11111222 
COMPS,ioos:station:USF.COMPS:C13:1,2019-11-12T08:35:00,26.0630,-83.0730,1014.4,11111222 
COMPS,ioos:station:USF.COMPS:C13:1,2019-11-12T09:35:00,26.0630,-83.0730,1014.16,11111222 
COMPS,ioos:station:USF.COMPS:C13:1,2019-11-12T10:35:00,26.0630,-83.0730,1014.13,11111222 